Year,Month,Day,Hour,Minute,Value (Times are PST for temperature in C)
2014,08,23,00,00,18.90
2014,08,23,00,01,18.90
2014,08,23,00,02,18.90
2014,08,23,00,03,18.80
2014,08,23,00,04,18.80
2014,08,23,00,05,18.80
2014,08,23,00,06,18.80
2014,08,23,00,07,18.80
2014,08,23,00,08,18.70
2014,08,23,00,09,18.70
2014,08,23,00,10,18.70
2014,08,23,00,11,18.70
2014,08,23,00,12,18.70
2014,08,23,00,13,18.60
2014,08,23,00,14,18.60
2014,08,23,00,15,18.60
2014,08,23,00,16,18.60
2014,08,23,00,17,18.60
2014,08,23,00,18,18.60
2014,08,23,00,19,18.60
2014,08,23,00,20,18.60
2014,08,23,00,21,18.70
2014,08,23,00,22,18.70
2014,08,23,00,23,18.70
2014,08,23,00,24,18.70
2014,08,23,00,25,18.70
2014,08,23,00,26,18.80
2014,08,23,00,27,18.80
2014,08,23,00,28,18.80
2014,08,23,00,29,18.80
2014,08,23,00,30,18.80
2014,08,23,00,31,18.90
2014,08,23,00,32,18.90
2014,08,23,00,33,18.90
2014,08,23,00,34,18.80
2014,08,23,00,35,18.80
2014,08,23,00,36,18.80
2014,08,23,00,37,18.80
2014,08,23,00,38,18.80
2014,08,23,00,39,18.80
2014,08,23,00,40,18.80
2014,08,23,00,41,18.80
2014,08,23,00,42,18.80
2014,08,23,00,43,18.80
2014,08,23,00,44,18.80
2014,08,23,00,45,18.80
2014,08,23,00,46,18.80
2014,08,23,00,47,18.80
2014,08,23,00,48,18.80
2014,08,23,00,49,18.80
2014,08,23,00,50,18.80
2014,08,23,00,51,18.80
2014,08,23,00,52,18.80
2014,08,23,00,53,18.80
2014,08,23,00,54,18.80
2014,08,23,00,55,18.80
2014,08,23,00,56,18.80
2014,08,23,00,57,18.80
2014,08,23,00,58,18.80
2014,08,23,00,59,18.80
2014,08,23,01,00,18.80
2014,08,23,01,01,18.90
2014,08,23,01,02,18.90
2014,08,23,01,03,18.90
2014,08,23,01,04,18.90
2014,08,23,01,05,18.90
2014,08,23,01,06,19.00
2014,08,23,01,07,19.00
2014,08,23,01,08,19.00
2014,08,23,01,09,19.00
2014,08,23,01,10,19.10
2014,08,23,01,11,19.10
2014,08,23,01,12,19.10
2014,08,23,01,13,19.10
2014,08,23,01,14,19.20
2014,08,23,01,15,19.20
2014,08,23,01,16,19.20
2014,08,23,01,17,19.10
2014,08,23,01,18,19.10
2014,08,23,01,19,19.10
2014,08,23,01,20,19.20
2014,08,23,01,21,19.20
2014,08,23,01,22,19.10
2014,08,23,01,23,19.10
2014,08,23,01,24,19.10
2014,08,23,01,25,19.10
2014,08,23,01,26,19.10
2014,08,23,01,27,19.10
2014,08,23,01,28,19.10
2014,08,23,01,29,19.10
2014,08,23,01,30,19.10
2014,08,23,01,31,19.10
2014,08,23,01,32,19.10
2014,08,23,01,33,19.00
2014,08,23,01,34,19.00
2014,08,23,01,35,18.90
2014,08,23,01,36,18.90
2014,08,23,01,37,18.80
2014,08,23,01,38,18.80
2014,08,23,01,39,18.80
2014,08,23,01,40,18.80
2014,08,23,01,41,18.80
2014,08,23,01,42,18.80
2014,08,23,01,43,18.80
2014,08,23,01,44,18.80
2014,08,23,01,45,18.80
2014,08,23,01,46,18.80
2014,08,23,01,47,18.90
2014,08,23,01,48,18.90
2014,08,23,01,49,18.90
2014,08,23,01,50,19.00
2014,08,23,01,51,19.00
2014,08,23,01,52,19.00
2014,08,23,01,53,19.00
2014,08,23,01,54,19.10
2014,08,23,01,55,19.10
2014,08,23,01,56,19.10
2014,08,23,01,57,19.10
2014,08,23,01,58,19.10
2014,08,23,01,59,19.10
2014,08,23,02,00,19.00
2014,08,23,02,01,19.00
2014,08,23,02,02,19.00
2014,08,23,02,03,18.90
2014,08,23,02,04,18.90
2014,08,23,02,05,18.90
2014,08,23,02,06,18.80
2014,08,23,02,07,18.80
2014,08,23,02,08,18.80
2014,08,23,02,09,18.80
2014,08,23,02,10,18.70
2014,08,23,02,11,18.70
2014,08,23,02,12,18.70
2014,08,23,02,13,18.60
2014,08,23,02,14,18.60
2014,08,23,02,15,18.60
2014,08,23,02,16,18.50
2014,08,23,02,17,18.50
2014,08,23,02,18,18.40
2014,08,23,02,19,18.30
2014,08,23,02,20,18.30
2014,08,23,02,21,18.20
2014,08,23,02,22,18.10
2014,08,23,02,23,18.10
2014,08,23,02,24,18.10
2014,08,23,02,25,18.00
2014,08,23,02,26,18.00
2014,08,23,02,27,18.00
2014,08,23,02,28,17.90
2014,08,23,02,29,17.90
2014,08,23,02,30,17.90
2014,08,23,02,31,17.90
2014,08,23,02,32,17.90
2014,08,23,02,33,17.90
2014,08,23,02,34,17.90
2014,08,23,02,35,17.90
2014,08,23,02,36,17.90
2014,08,23,02,37,18.00
2014,08,23,02,38,18.00
2014,08,23,02,39,18.00
2014,08,23,02,40,18.10
2014,08,23,02,41,18.10
2014,08,23,02,42,18.10
2014,08,23,02,43,18.10
2014,08,23,02,44,18.20
2014,08,23,02,45,18.20
2014,08,23,02,46,18.20
2014,08,23,02,47,18.20
2014,08,23,02,48,18.20
2014,08,23,02,49,18.20
2014,08,23,02,50,18.20
2014,08,23,02,51,18.20
2014,08,23,02,52,18.20
2014,08,23,02,53,18.20
2014,08,23,02,54,18.20
2014,08,23,02,55,18.20
2014,08,23,02,56,18.20
2014,08,23,02,57,18.20
2014,08,23,02,58,18.20
2014,08,23,02,59,18.10
2014,08,23,03,00,18.10
2014,08,23,03,01,18.20
2014,08,23,03,02,18.10
2014,08,23,03,03,18.10
2014,08,23,03,04,18.10
2014,08,23,03,05,18.10
2014,08,23,03,06,18.10
2014,08,23,03,07,18.10
2014,08,23,03,08,18.10
2014,08,23,03,09,18.10
2014,08,23,03,10,18.00
2014,08,23,03,11,18.00
2014,08,23,03,12,18.00
2014,08,23,03,13,18.00
2014,08,23,03,14,18.00
2014,08,23,03,15,17.90
2014,08,23,03,16,17.90
2014,08,23,03,17,17.90
2014,08,23,03,18,17.90
2014,08,23,03,19,17.80
2014,08,23,03,20,17.80
2014,08,23,03,21,17.80
2014,08,23,03,22,17.80
2014,08,23,03,23,17.70
2014,08,23,03,24,17.70
2014,08,23,03,25,17.70
2014,08,23,03,26,17.70
2014,08,23,03,27,17.70
2014,08,23,03,28,17.60
2014,08,23,03,29,17.60
2014,08,23,03,30,17.60
2014,08,23,03,31,17.60
2014,08,23,03,32,17.60
2014,08,23,03,33,17.60
2014,08,23,03,34,17.60
2014,08,23,03,35,17.60
2014,08,23,03,36,17.60
2014,08,23,03,37,17.60
2014,08,23,03,38,17.70
2014,08,23,03,39,17.70
2014,08,23,03,40,17.70
2014,08,23,03,41,17.70
2014,08,23,03,42,17.60
2014,08,23,03,43,17.60
2014,08,23,03,44,17.60
2014,08,23,03,45,17.60
2014,08,23,03,46,17.50
2014,08,23,03,47,17.50
2014,08,23,03,48,17.50
2014,08,23,03,49,17.50
2014,08,23,03,50,17.50
2014,08,23,03,51,17.50
2014,08,23,03,52,17.50
2014,08,23,03,53,17.50
2014,08,23,03,54,17.50
2014,08,23,03,55,17.40
2014,08,23,03,56,17.40
2014,08,23,03,57,17.40
2014,08,23,03,58,17.40
2014,08,23,03,59,17.40
2014,08,23,04,00,17.40
2014,08,23,04,01,17.40
2014,08,23,04,02,17.40
2014,08,23,04,03,17.40
2014,08,23,04,04,17.40
2014,08,23,04,05,17.40
2014,08,23,04,06,17.40
2014,08,23,04,07,17.40
2014,08,23,04,08,17.40
2014,08,23,04,09,17.40
2014,08,23,04,10,17.40
2014,08,23,04,11,17.40
2014,08,23,04,12,17.40
2014,08,23,04,13,17.40
2014,08,23,04,14,17.40
2014,08,23,04,15,17.40
2014,08,23,04,16,17.40
2014,08,23,04,17,17.40
2014,08,23,04,18,17.40
2014,08,23,04,19,17.50
2014,08,23,04,20,17.50
2014,08,23,04,21,17.60
2014,08,23,04,22,17.60
2014,08,23,04,23,17.60
2014,08,23,04,24,17.60
2014,08,23,04,25,17.60
2014,08,23,04,26,17.60
2014,08,23,04,27,17.60
2014,08,23,04,28,17.60
2014,08,23,04,29,17.60
2014,08,23,04,30,17.60
2014,08,23,04,31,17.60
2014,08,23,04,32,17.60
2014,08,23,04,33,17.70
2014,08,23,04,34,17.70
2014,08,23,04,35,17.70
2014,08,23,04,36,17.80
2014,08,23,04,37,17.80
2014,08,23,04,38,17.80
2014,08,23,04,39,17.80
2014,08,23,04,40,17.70
2014,08,23,04,41,17.70
2014,08,23,04,42,17.70
2014,08,23,04,43,17.70
2014,08,23,04,44,17.70
2014,08,23,04,45,17.60
2014,08,23,04,46,17.60
2014,08,23,04,47,17.50
2014,08,23,04,48,17.50
2014,08,23,04,49,17.50
2014,08,23,04,50,17.50
2014,08,23,04,51,17.50
2014,08,23,04,52,17.50
2014,08,23,04,53,17.50
2014,08,23,04,54,17.40
2014,08,23,04,55,17.40
2014,08,23,04,56,17.40
2014,08,23,04,57,17.30
2014,08,23,04,58,17.30
2014,08,23,04,59,17.30
2014,08,23,05,00,17.30
2014,08,23,05,01,17.20
2014,08,23,05,02,17.20
2014,08,23,05,03,17.20
2014,08,23,05,04,17.20
2014,08,23,05,05,17.30
2014,08,23,05,06,17.30
2014,08,23,05,07,17.40
2014,08,23,05,08,17.40
2014,08,23,05,09,17.40
2014,08,23,05,10,17.40
2014,08,23,05,11,17.40
2014,08,23,05,12,17.40
2014,08,23,05,13,17.40
2014,08,23,05,14,17.30
2014,08,23,05,15,17.30
2014,08,23,05,16,17.30
2014,08,23,05,17,17.30
2014,08,23,05,18,17.30
2014,08,23,05,19,17.20
2014,08,23,05,20,17.20
2014,08,23,05,21,17.20
2014,08,23,05,22,17.20
2014,08,23,05,23,17.20
2014,08,23,05,24,17.20
2014,08,23,05,25,17.20
2014,08,23,05,26,17.20
2014,08,23,05,27,17.20
2014,08,23,05,28,17.20
2014,08,23,05,29,17.20
2014,08,23,05,30,17.10
2014,08,23,05,31,17.10
2014,08,23,05,32,17.10
2014,08,23,05,33,17.10
2014,08,23,05,34,17.10
2014,08,23,05,35,17.20
2014,08,23,05,36,17.20
2014,08,23,05,37,17.20
2014,08,23,05,38,17.20
2014,08,23,05,39,17.20
2014,08,23,05,40,17.20
2014,08,23,05,41,17.20
2014,08,23,05,42,17.30
2014,08,23,05,43,17.30
2014,08,23,05,44,17.30
2014,08,23,05,45,17.30
2014,08,23,05,46,17.30
2014,08,23,05,47,17.20
2014,08,23,05,48,17.20
2014,08,23,05,49,17.20
2014,08,23,05,50,17.20
2014,08,23,05,51,17.20
2014,08,23,05,52,17.20
2014,08,23,05,53,17.20
2014,08,23,05,54,17.20
2014,08,23,05,55,17.20
2014,08,23,05,56,17.20
2014,08,23,05,57,17.10
2014,08,23,05,58,17.10
2014,08,23,05,59,17.10
2014,08,23,06,00,17.10
2014,08,23,06,01,17.10
2014,08,23,06,02,17.10
2014,08,23,06,03,17.10
2014,08,23,06,04,17.20
2014,08,23,06,05,17.20
2014,08,23,06,06,17.20
2014,08,23,06,07,17.20
2014,08,23,06,08,17.20
2014,08,23,06,09,17.20
2014,08,23,06,10,17.20
2014,08,23,06,11,17.20
2014,08,23,06,12,17.20
2014,08,23,06,13,17.20
2014,08,23,06,14,17.20
2014,08,23,06,15,17.20
2014,08,23,06,16,17.10
2014,08,23,06,17,17.10
2014,08,23,06,18,17.10
2014,08,23,06,19,17.10
2014,08,23,06,20,17.10
2014,08,23,06,21,17.10
2014,08,23,06,22,17.10
2014,08,23,06,23,17.10
2014,08,23,06,24,17.10
2014,08,23,06,25,17.10
2014,08,23,06,26,17.10
2014,08,23,06,27,17.10
2014,08,23,06,28,17.10
2014,08,23,06,29,17.10
2014,08,23,06,30,17.10
2014,08,23,06,31,17.10
2014,08,23,06,32,17.10
2014,08,23,06,33,17.10
2014,08,23,06,34,17.10
2014,08,23,06,35,17.10
2014,08,23,06,36,17.10
2014,08,23,06,37,17.10
2014,08,23,06,38,17.10
2014,08,23,06,39,17.10
2014,08,23,06,40,17.10
2014,08,23,06,41,17.20
2014,08,23,06,42,17.20
2014,08,23,06,43,17.20
2014,08,23,06,44,17.20
2014,08,23,06,45,17.20
2014,08,23,06,46,17.20
2014,08,23,06,47,17.20
2014,08,23,06,48,17.20
2014,08,23,06,49,17.30
2014,08,23,06,50,17.30
2014,08,23,06,51,17.30
2014,08,23,06,52,17.30
2014,08,23,06,53,17.40
2014,08,23,06,54,17.40
2014,08,23,06,55,17.40
2014,08,23,06,56,17.50
2014,08,23,06,57,17.50
2014,08,23,06,58,17.50
2014,08,23,06,59,17.60
2014,08,23,07,00,17.60
2014,08,23,07,01,17.60
2014,08,23,07,02,17.70
2014,08,23,07,03,17.70
2014,08,23,07,04,17.70
2014,08,23,07,05,17.80
2014,08,23,07,06,17.80
2014,08,23,07,07,17.80
2014,08,23,07,08,17.80
2014,08,23,07,09,17.90
2014,08,23,07,10,17.90
2014,08,23,07,11,17.90
2014,08,23,07,12,18.00
2014,08,23,07,13,18.00
2014,08,23,07,14,18.10
2014,08,23,07,15,18.10
2014,08,23,07,16,18.10
2014,08,23,07,17,18.20
2014,08,23,07,18,18.20
2014,08,23,07,19,18.20
2014,08,23,07,20,18.30
2014,08,23,07,21,18.30
2014,08,23,07,22,18.40
2014,08,23,07,23,18.50
2014,08,23,07,24,18.50
2014,08,23,07,25,18.60
2014,08,23,07,26,18.70
2014,08,23,07,27,18.70
2014,08,23,07,28,18.80
2014,08,23,07,29,18.80
2014,08,23,07,30,18.90
2014,08,23,07,31,18.90
2014,08,23,07,32,18.90
2014,08,23,07,33,19.00
2014,08,23,07,34,19.00
2014,08,23,07,35,19.00
2014,08,23,07,36,19.10
2014,08,23,07,37,19.10
2014,08,23,07,38,19.10
2014,08,23,07,39,19.20
2014,08,23,07,40,19.20
2014,08,23,07,41,19.30
2014,08,23,07,42,19.30
2014,08,23,07,43,19.20
2014,08,23,07,44,19.20
2014,08,23,07,45,19.10
2014,08,23,07,46,19.00
2014,08,23,07,47,19.00
2014,08,23,07,48,18.90
2014,08,23,07,49,18.80
2014,08,23,07,50,18.70
2014,08,23,07,51,18.70
2014,08,23,07,52,18.60
2014,08,23,07,53,18.50
2014,08,23,07,54,18.50
2014,08,23,07,55,18.40
2014,08,23,07,56,18.40
2014,08,23,07,57,18.40
2014,08,23,07,58,18.50
2014,08,23,07,59,18.50
2014,08,23,08,00,18.60
2014,08,23,08,01,18.60
2014,08,23,08,02,18.70
2014,08,23,08,03,18.70
2014,08,23,08,04,18.70
2014,08,23,08,05,18.80
2014,08,23,08,06,18.80
2014,08,23,08,07,18.80
2014,08,23,08,08,18.90
2014,08,23,08,09,19.00
2014,08,23,08,10,19.10
2014,08,23,08,11,19.10
2014,08,23,08,12,19.20
2014,08,23,08,13,19.30
2014,08,23,08,14,19.30
2014,08,23,08,15,19.40
2014,08,23,08,16,19.40
2014,08,23,08,17,19.50
2014,08,23,08,18,19.50
2014,08,23,08,19,19.60
2014,08,23,08,20,19.70
2014,08,23,08,21,19.80
2014,08,23,08,22,19.80
2014,08,23,08,23,19.70
2014,08,23,08,24,19.60
2014,08,23,08,25,19.50
2014,08,23,08,26,19.40
2014,08,23,08,27,19.30
2014,08,23,08,28,19.30
2014,08,23,08,29,19.30
2014,08,23,08,30,19.20
2014,08,23,08,31,19.20
2014,08,23,08,32,19.20
2014,08,23,08,33,19.20
2014,08,23,08,34,19.10
2014,08,23,08,35,19.10
2014,08,23,08,36,19.10
2014,08,23,08,37,19.20
2014,08,23,08,38,19.20
2014,08,23,08,39,19.30
2014,08,23,08,40,19.30
2014,08,23,08,41,19.30
2014,08,23,08,42,19.30
2014,08,23,08,43,19.30
2014,08,23,08,44,19.30
2014,08,23,08,45,19.30
2014,08,23,08,46,19.30
2014,08,23,08,47,19.30
2014,08,23,08,48,19.30
2014,08,23,08,49,19.30
2014,08,23,08,50,19.30
2014,08,23,08,51,19.40
2014,08,23,08,52,19.40
2014,08,23,08,53,19.40
2014,08,23,08,54,19.50
2014,08,23,08,55,19.50
2014,08,23,08,56,19.60
2014,08,23,08,57,19.60
2014,08,23,08,58,19.70
2014,08,23,08,59,19.70
2014,08,23,09,00,19.70
2014,08,23,09,01,19.70
2014,08,23,09,02,19.70
2014,08,23,09,03,19.80
2014,08,23,09,04,19.80
2014,08,23,09,05,19.90
2014,08,23,09,06,20.00
2014,08,23,09,07,20.00
2014,08,23,09,08,20.10
2014,08,23,09,09,20.20
2014,08,23,09,10,20.20
2014,08,23,09,11,20.10
2014,08,23,09,12,20.10
2014,08,23,09,13,20.10
2014,08,23,09,14,20.00
2014,08,23,09,15,20.00
2014,08,23,09,16,20.00
2014,08,23,09,17,20.10
2014,08,23,09,18,20.20
2014,08,23,09,19,20.20
2014,08,23,09,20,20.20
2014,08,23,09,21,20.10
2014,08,23,09,22,20.00
2014,08,23,09,23,20.00
2014,08,23,09,24,19.90
2014,08,23,09,25,19.90
2014,08,23,09,26,19.90
2014,08,23,09,27,19.90
2014,08,23,09,28,19.90
2014,08,23,09,29,20.00
2014,08,23,09,30,20.10
2014,08,23,09,31,20.20
2014,08,23,09,32,20.30
2014,08,23,09,33,20.40
2014,08,23,09,34,20.50
2014,08,23,09,35,20.50
2014,08,23,09,36,20.40
2014,08,23,09,37,20.40
2014,08,23,09,38,20.40
2014,08,23,09,39,20.30
2014,08,23,09,40,20.30
2014,08,23,09,41,20.30
2014,08,23,09,42,20.30
2014,08,23,09,43,20.40
2014,08,23,09,44,20.40
2014,08,23,09,45,20.50
2014,08,23,09,46,20.60
2014,08,23,09,47,20.60
2014,08,23,09,48,20.60
2014,08,23,09,49,20.60
2014,08,23,09,50,20.60
2014,08,23,09,51,20.50
2014,08,23,09,52,20.50
2014,08,23,09,53,20.40
2014,08,23,09,54,20.40
2014,08,23,09,55,20.40
2014,08,23,09,56,20.40
2014,08,23,09,57,20.40
2014,08,23,09,58,20.40
2014,08,23,09,59,20.40
2014,08,23,10,00,20.40
2014,08,23,10,01,20.40
2014,08,23,10,02,20.40
2014,08,23,10,03,20.40
2014,08,23,10,04,20.40
2014,08,23,10,05,20.40
2014,08,23,10,06,20.50
2014,08,23,10,07,20.60
2014,08,23,10,08,20.60
2014,08,23,10,09,20.70
2014,08,23,10,10,20.70
2014,08,23,10,11,20.70
2014,08,23,10,12,20.60
2014,08,23,10,13,20.60
2014,08,23,10,14,20.60
2014,08,23,10,15,20.60
2014,08,23,10,16,20.50
2014,08,23,10,17,20.50
2014,08,23,10,18,20.40
2014,08,23,10,19,20.40
2014,08,23,10,20,20.40
2014,08,23,10,21,20.40
2014,08,23,10,22,20.40
2014,08,23,10,23,20.50
2014,08,23,10,24,20.50
2014,08,23,10,25,20.50
2014,08,23,10,26,20.40
2014,08,23,10,27,20.40
2014,08,23,10,28,20.40
2014,08,23,10,29,20.40
2014,08,23,10,30,20.40
2014,08,23,10,31,20.30
2014,08,23,10,32,20.30
2014,08,23,10,33,20.40
2014,08,23,10,34,20.40
2014,08,23,10,35,20.40
2014,08,23,10,36,20.40
2014,08,23,10,37,20.40
2014,08,23,10,38,20.50
2014,08,23,10,39,20.50
2014,08,23,10,40,20.60
2014,08,23,10,41,20.60
2014,08,23,10,42,20.70
2014,08,23,10,43,20.80
2014,08,23,10,44,20.90
2014,08,23,10,45,20.90
2014,08,23,10,46,20.90
2014,08,23,10,47,20.90
2014,08,23,10,48,20.90
2014,08,23,10,49,20.90
2014,08,23,10,50,20.90
2014,08,23,10,51,20.90
2014,08,23,10,52,21.00
2014,08,23,10,53,21.10
2014,08,23,10,54,21.20
2014,08,23,10,55,21.20
2014,08,23,10,56,21.20
2014,08,23,10,57,21.20
2014,08,23,10,58,21.20
2014,08,23,10,59,21.20
2014,08,23,11,00,21.20
2014,08,23,11,01,21.20
2014,08,23,11,02,21.20
2014,08,23,11,03,21.10
2014,08,23,11,04,21.10
2014,08,23,11,05,21.20
2014,08,23,11,06,21.20
2014,08,23,11,07,21.30
2014,08,23,11,08,21.30
2014,08,23,11,09,21.40
2014,08,23,11,10,21.50
2014,08,23,11,11,21.50
2014,08,23,11,12,21.70
2014,08,23,11,13,21.70
2014,08,23,11,14,21.60
2014,08,23,11,15,21.60
2014,08,23,11,16,21.60
2014,08,23,11,17,21.60
2014,08,23,11,18,21.70
2014,08,23,11,19,21.80
2014,08,23,11,20,21.80
2014,08,23,11,21,21.80
2014,08,23,11,22,21.80
2014,08,23,11,23,21.80
2014,08,23,11,24,21.80
2014,08,23,11,25,21.80
2014,08,23,11,26,21.80
2014,08,23,11,27,21.80
2014,08,23,11,28,21.80
2014,08,23,11,29,21.80
2014,08,23,11,30,21.80
2014,08,23,11,31,21.80
2014,08,23,11,32,21.80
2014,08,23,11,33,21.80
2014,08,23,11,34,21.80
2014,08,23,11,35,21.80
2014,08,23,11,36,21.80
2014,08,23,11,37,21.90
2014,08,23,11,38,22.00
2014,08,23,11,39,21.90
2014,08,23,11,40,22.00
2014,08,23,11,41,22.10
2014,08,23,11,42,22.20
2014,08,23,11,43,22.20
2014,08,23,11,44,22.20
2014,08,23,11,45,22.20
2014,08,23,11,46,22.20
2014,08,23,11,47,22.20
2014,08,23,11,48,22.20
2014,08,23,11,49,22.20
2014,08,23,11,50,22.10
2014,08,23,11,51,22.10
2014,08,23,11,52,22.00
2014,08,23,11,53,21.90
2014,08,23,11,54,21.90
2014,08,23,11,55,21.80
2014,08,23,11,56,21.80
2014,08,23,11,57,21.90
2014,08,23,11,58,21.90
2014,08,23,11,59,22.00
2014,08,23,12,00,22.00
2014,08,23,12,01,22.10
2014,08,23,12,02,22.10
2014,08,23,12,03,22.10
2014,08,23,12,04,22.10
2014,08,23,12,05,22.00
2014,08,23,12,06,22.10
2014,08,23,12,07,22.10
2014,08,23,12,08,22.10
2014,08,23,12,09,22.20
2014,08,23,12,10,22.20
2014,08,23,12,11,22.10
2014,08,23,12,12,22.00
2014,08,23,12,13,22.00
2014,08,23,12,14,22.00
2014,08,23,12,15,22.20
2014,08,23,12,16,22.30
2014,08,23,12,17,22.50
2014,08,23,12,18,22.60
2014,08,23,12,19,22.60
2014,08,23,12,20,22.60
2014,08,23,12,21,22.60
2014,08,23,12,22,22.60
2014,08,23,12,23,22.50
2014,08,23,12,24,22.50
2014,08,23,12,25,22.60
2014,08,23,12,26,22.70
2014,08,23,12,27,22.70
2014,08,23,12,28,22.60
2014,08,23,12,29,22.60
2014,08,23,12,30,22.50
2014,08,23,12,31,22.50
2014,08,23,12,32,22.40
2014,08,23,12,33,22.40
2014,08,23,12,34,22.30
2014,08,23,12,35,22.30
2014,08,23,12,36,22.30
2014,08,23,12,37,22.30
2014,08,23,12,38,22.30
2014,08,23,12,39,22.30
2014,08,23,12,40,22.30
2014,08,23,12,41,22.40
2014,08,23,12,42,22.30
2014,08,23,12,43,22.30
2014,08,23,12,44,22.30
2014,08,23,12,45,22.40
2014,08,23,12,46,22.50
2014,08,23,12,47,22.60
2014,08,23,12,48,22.50
2014,08,23,12,49,22.50
2014,08,23,12,50,22.50
2014,08,23,12,51,22.50
2014,08,23,12,52,22.60
2014,08,23,12,53,22.50
2014,08,23,12,54,22.50
2014,08,23,12,55,22.60
2014,08,23,12,56,22.60
2014,08,23,12,57,22.60
2014,08,23,12,58,22.60
2014,08,23,12,59,22.60
2014,08,23,13,00,22.70
2014,08,23,13,01,22.70
2014,08,23,13,02,22.70
2014,08,23,13,03,22.80
2014,08,23,13,04,22.80
2014,08,23,13,05,22.80
2014,08,23,13,06,22.80
2014,08,23,13,07,22.80
2014,08,23,13,08,22.80
2014,08,23,13,09,22.80
2014,08,23,13,10,22.80
2014,08,23,13,11,22.70
2014,08,23,13,12,22.60
2014,08,23,13,13,22.60
2014,08,23,13,14,22.60
2014,08,23,13,15,22.60
2014,08,23,13,16,22.60
2014,08,23,13,17,22.70
2014,08,23,13,18,22.80
2014,08,23,13,19,22.80
2014,08,23,13,20,22.80
2014,08,23,13,21,22.80
2014,08,23,13,22,22.70
2014,08,23,13,23,22.60
2014,08,23,13,24,22.60
2014,08,23,13,25,22.60
2014,08,23,13,26,22.70
2014,08,23,13,27,22.70
2014,08,23,13,28,22.60
2014,08,23,13,29,22.60
2014,08,23,13,30,22.70
2014,08,23,13,31,22.70
2014,08,23,13,32,22.70
2014,08,23,13,33,22.80
2014,08,23,13,34,22.80
2014,08,23,13,35,22.80
2014,08,23,13,36,22.80
2014,08,23,13,37,22.80
2014,08,23,13,38,22.80
2014,08,23,13,39,22.80
2014,08,23,13,40,22.90
2014,08,23,13,41,23.00
2014,08,23,13,42,23.10
2014,08,23,13,43,23.20
2014,08,23,13,44,23.20
2014,08,23,13,45,23.30
2014,08,23,13,46,23.40
2014,08,23,13,47,23.50
2014,08,23,13,48,23.60
2014,08,23,13,49,23.50
2014,08,23,13,50,23.40
2014,08,23,13,51,23.30
2014,08,23,13,52,23.20
2014,08,23,13,53,23.20
2014,08,23,13,54,23.20
2014,08,23,13,55,23.30
2014,08,23,13,56,23.40
2014,08,23,13,57,23.50
2014,08,23,13,58,23.50
2014,08,23,13,59,23.50
2014,08,23,14,00,23.60
2014,08,23,14,01,23.50
2014,08,23,14,02,23.50
2014,08,23,14,03,23.40
2014,08,23,14,04,23.30
2014,08,23,14,05,23.30
2014,08,23,14,06,23.30
2014,08,23,14,07,23.30
2014,08,23,14,08,23.30
2014,08,23,14,09,23.30
2014,08,23,14,10,23.30
2014,08,23,14,11,23.30
2014,08,23,14,12,23.30
2014,08,23,14,13,23.30
2014,08,23,14,14,23.30
2014,08,23,14,15,23.30
2014,08,23,14,16,23.20
2014,08,23,14,17,23.30
2014,08,23,14,18,23.30
2014,08,23,14,19,23.40
2014,08,23,14,20,23.40
2014,08,23,14,21,23.30
2014,08,23,14,22,23.30
2014,08,23,14,23,23.20
2014,08,23,14,24,23.10
2014,08,23,14,25,23.10
2014,08,23,14,26,23.10
2014,08,23,14,27,23.20
2014,08,23,14,28,23.30
2014,08,23,14,29,23.40
2014,08,23,14,30,23.40
2014,08,23,14,31,23.40
2014,08,23,14,32,23.40
2014,08,23,14,33,23.40
2014,08,23,14,34,23.40
2014,08,23,14,35,23.40
2014,08,23,14,36,23.50
2014,08,23,14,37,23.60
2014,08,23,14,38,23.70
2014,08,23,14,39,23.70
2014,08,23,14,40,23.70
2014,08,23,14,41,23.80
2014,08,23,14,42,23.90
2014,08,23,14,43,24.00
2014,08,23,14,44,24.10
2014,08,23,14,45,24.20
2014,08,23,14,46,24.20
2014,08,23,14,47,24.20
2014,08,23,14,48,24.20
2014,08,23,14,49,24.20
2014,08,23,14,50,24.10
2014,08,23,14,51,23.90
2014,08,23,14,52,23.80
2014,08,23,14,53,23.80
2014,08,23,14,54,23.80
2014,08,23,14,55,23.70
2014,08,23,14,56,23.70
2014,08,23,14,57,23.70
2014,08,23,14,58,23.70
2014,08,23,14,59,23.80
2014,08,23,15,00,23.90
2014,08,23,15,01,24.00
2014,08,23,15,02,24.00
2014,08,23,15,03,24.00
2014,08,23,15,04,23.90
2014,08,23,15,05,23.80
2014,08,23,15,06,23.80
2014,08,23,15,07,23.90
2014,08,23,15,08,23.90
2014,08,23,15,09,24.00
2014,08,23,15,10,24.10
2014,08,23,15,11,24.10
2014,08,23,15,12,24.10
2014,08,23,15,13,24.10
2014,08,23,15,14,24.10
2014,08,23,15,15,24.00
2014,08,23,15,16,24.00
2014,08,23,15,17,24.10
2014,08,23,15,18,24.10
2014,08,23,15,19,24.10
2014,08,23,15,20,24.10
2014,08,23,15,21,24.10
2014,08,23,15,22,24.10
2014,08,23,15,23,24.20
2014,08,23,15,24,24.20
2014,08,23,15,25,24.20
2014,08,23,15,26,24.20
2014,08,23,15,27,24.20
2014,08,23,15,28,24.20
2014,08,23,15,29,24.20
2014,08,23,15,30,24.30
2014,08,23,15,31,24.30
2014,08,23,15,32,24.30
2014,08,23,15,33,24.40
2014,08,23,15,34,24.30
2014,08,23,15,35,24.40
2014,08,23,15,36,24.50
2014,08,23,15,37,24.50
2014,08,23,15,38,24.50
2014,08,23,15,39,24.50
2014,08,23,15,40,24.40
2014,08,23,15,41,24.40
2014,08,23,15,42,24.50
2014,08,23,15,43,24.60
2014,08,23,15,44,24.60
2014,08,23,15,45,24.70
2014,08,23,15,46,24.70
2014,08,23,15,47,24.70
2014,08,23,15,48,24.70
2014,08,23,15,49,24.70
2014,08,23,15,50,24.70
2014,08,23,15,51,24.80
2014,08,23,15,52,24.80
2014,08,23,15,53,24.80
2014,08,23,15,54,24.80
2014,08,23,15,55,24.80
2014,08,23,15,56,24.90
2014,08,23,15,57,25.00
2014,08,23,15,58,25.00
2014,08,23,15,59,25.10
2014,08,23,16,00,25.20
2014,08,23,16,01,25.20
2014,08,23,16,02,25.20
2014,08,23,16,03,25.10
2014,08,23,16,04,25.00
2014,08,23,16,05,25.00
2014,08,23,16,06,25.00
2014,08,23,16,07,25.10
2014,08,23,16,08,25.10
2014,08,23,16,09,25.20
2014,08,23,16,10,25.20
2014,08,23,16,11,25.10
2014,08,23,16,12,25.10
2014,08,23,16,13,25.00
2014,08,23,16,14,25.00
2014,08,23,16,15,25.00
2014,08,23,16,16,24.90
2014,08,23,16,17,24.90
2014,08,23,16,18,24.90
2014,08,23,16,19,24.90
2014,08,23,16,20,25.00
2014,08,23,16,21,25.00
2014,08,23,16,22,25.00
2014,08,23,16,23,24.90
2014,08,23,16,24,24.90
2014,08,23,16,25,24.90
2014,08,23,16,26,24.90
2014,08,23,16,27,25.00
2014,08,23,16,28,25.00
2014,08,23,16,29,24.90
2014,08,23,16,30,24.90
2014,08,23,16,31,24.90
2014,08,23,16,32,24.90
2014,08,23,16,33,24.90
2014,08,23,16,34,24.90
2014,08,23,16,35,25.00
2014,08,23,16,36,25.00
2014,08,23,16,37,25.10
2014,08,23,16,38,25.10
2014,08,23,16,39,25.10
2014,08,23,16,40,25.10
2014,08,23,16,41,25.00
2014,08,23,16,42,24.90
2014,08,23,16,43,24.90
2014,08,23,16,44,24.90
2014,08,23,16,45,24.90
2014,08,23,16,46,25.00
2014,08,23,16,47,25.00
2014,08,23,16,48,25.00
2014,08,23,16,49,25.00
2014,08,23,16,50,25.00
2014,08,23,16,51,24.90
2014,08,23,16,52,24.90
2014,08,23,16,53,24.80
2014,08,23,16,54,24.80
2014,08,23,16,55,24.80
2014,08,23,16,56,24.80
2014,08,23,16,57,24.80
2014,08,23,16,58,24.80
2014,08,23,16,59,24.80
2014,08,23,17,00,24.70
2014,08,23,17,01,24.60
2014,08,23,17,02,24.60
2014,08,23,17,03,24.50
2014,08,23,17,04,24.40
2014,08,23,17,05,24.40
2014,08,23,17,06,24.40
2014,08,23,17,07,24.40
2014,08,23,17,08,24.40
2014,08,23,17,09,24.40
2014,08,23,17,10,24.40
2014,08,23,17,11,24.50
2014,08,23,17,12,24.60
2014,08,23,17,13,24.60
2014,08,23,17,14,24.70
2014,08,23,17,15,24.70
2014,08,23,17,16,24.70
2014,08,23,17,17,24.70
2014,08,23,17,18,24.60
2014,08,23,17,19,24.50